Homestead AFB, FL

12:10 AM EDT on June 23, 2017 (GMT -0400)
Dade County-Homestead Regional

Weather History for KHST - January, 2013

Change the Weather History Date:

Wednesday, January 9, 2013

  Actual Average Record
Temperature  
Mean Temperature 78 °F -  
Max Temperature 81 °F 76 °F 85 °F (1971)
Min Temperature 75 °F 54 °F 29 °F (1956)
Cooling Degree Days 13    
Growing Degree Days 28 (Base 50)    
Moisture  
Dew Point 72 °F    
Average Humidity 83    
Maximum Humidity 89    
Minimum Humidity 77    
Precipitation  
Precipitation 0.00 in - - ()
Sea Level Pressure  
Sea Level Pressure 30.23 in    
Wind  
Wind Speed 12 mph (East)    
Max Wind Speed 18 mph    
Max Gust Speed 25 mph    
Visibility 10 miles    
Events Rain    
Averages and records for this station are not official NWS values.
T = Trace of Precipitation, MM = Missing Value Source: NWS Daily Summary

Daily Weather History Graph

Daily Weather History Graph

Search for Another Location

Airport or City:

Trip Planner

Search our weather history database for the weather conditions in past years. The results will help you decide how hot, cold, wet, or windy it might be!

Date:

Astronomy

Jan. 09, 2013 Rise Set
Actual Time 7:09 AM EST 5:48 PM EST
Civil Twilight 6:44 AM EST 6:13 PM EST
Nautical Twilight 6:15 AM EST 6:41 PM EST
Astronomical Twilight 5:48 AM EST 7:09 PM EST
Moon 4:46 AM EST (1/9) 3:49 PM EST (1/9)
Length of Visible Light 11h 29m
Length of Day
10h 39m
Waning Crescent, 6% of the Moon is Illuminated
Jan 9
Waning Crescent
Jan 11
New
Jan 18
First Quarter
Jan 26
Full
Feb 3
Last Quarter

Hourly Weather History & Observations

Time (EST) Temp. Heat Index Dew Point Humidity Pressure Visibility Wind Dir Wind Speed Gust Speed Precip Events Conditions
12:55 AM 77.2 °F - 71.1 °F 81% 30.17 in 10.0 mi ESE 11.5 mph - N/A   Overcast
1:55 AM 76.3 °F - 72.0 °F 86% 30.17 in 10.0 mi ESE 10.4 mph - N/A   Mostly Cloudy
2:55 AM 75.7 °F - 72.0 °F 88% 30.17 in 10.0 mi ESE 8.1 mph - N/A   Clear
3:55 AM 75.7 °F - 70.7 °F 84% 30.18 in 10.0 mi East 10.4 mph - N/A   Partly Cloudy
4:55 AM 75.6 °F - 70.9 °F 85% 30.19 in 10.0 mi East 10.4 mph - N/A   Partly Cloudy
5:55 AM 75.2 °F - 69.4 °F 82% 30.20 in 10.0 mi ESE 10.4 mph - N/A   Clear
6:55 AM 75.0 °F - 70.0 °F 84% 30.22 in 10.0 mi East 9.2 mph - N/A   Clear
7:55 AM 75.7 °F - 71.1 °F 85% 30.24 in 10.0 mi East 8.1 mph - N/A   Partly Cloudy
8:55 AM 77.9 °F - 72.0 °F 82% 30.25 in 10.0 mi East 16.1 mph 20.7 mph N/A   Clear
9:11 AM 77.0 °F - 71.6 °F 83% 30.27 in 9.0 mi East 13.8 mph - N/A Rain Light Rain
9:21 AM 77.0 °F - 73.4 °F 89% 30.27 in 10.0 mi East 10.4 mph - N/A   Partly Cloudy
9:55 AM 78.8 °F - 72.5 °F 81% 30.27 in 10.0 mi East 16.1 mph 23.0 mph 0.00 in   Clear
10:55 AM 80.1 °F 84.2 °F 72.9 °F 79% 30.26 in 10.0 mi ESE 17.3 mph 24.2 mph N/A   Partly Cloudy
11:55 AM 80.4 °F 85.0 °F 73.2 °F 79% 30.24 in 10.0 mi East 15.0 mph 25.3 mph N/A   Clear
12:55 PM 81.1 °F 86.2 °F 73.4 °F 77% 30.22 in 10.0 mi East 13.8 mph 25.3 mph N/A   Clear
1:55 PM 80.4 °F 84.8 °F 72.9 °F 78% 30.21 in 10.0 mi East 18.4 mph 24.2 mph N/A   Clear
2:55 PM 80.8 °F 85.4 °F 73.0 °F 77% 30.20 in 10.0 mi East 15.0 mph - N/A   Partly Cloudy
3:55 PM 78.8 °F - 72.7 °F 81% 30.21 in 10.0 mi East 11.5 mph - N/A   Partly Cloudy
4:44 PM 77.0 °F - 73.4 °F 89% 30.21 in 10.0 mi East 13.8 mph 19.6 mph N/A   Light Drizzle
4:55 PM 77.5 °F - 72.9 °F 85% 30.21 in 10.0 mi ENE 11.5 mph 19.6 mph 0.00 in Rain Light Rain
5:02 PM 77.0 °F - 73.4 °F 89% 30.22 in 10.0 mi East 11.5 mph - N/A   Partly Cloudy
5:55 PM 76.5 °F - 72.1 °F 86% 30.22 in 10.0 mi East 11.5 mph - 0.00 in   Partly Cloudy
6:55 PM 76.1 °F - 72.1 °F 87% 30.24 in 10.0 mi ENE 12.7 mph - N/A   Partly Cloudy
7:55 PM 76.1 °F - 72.0 °F 87% 30.25 in 10.0 mi East 13.8 mph - N/A   Clear
8:55 PM 76.1 °F - 71.4 °F 85% 30.26 in 10.0 mi East 13.8 mph - N/A   Clear
9:55 PM 76.3 °F - 70.7 °F 83% 30.27 in 10.0 mi East 15.0 mph 21.9 mph N/A   Partly Cloudy
10:55 PM 76.5 °F - 69.3 °F 78% 30.27 in 10.0 mi East 13.8 mph 20.7 mph N/A   Mostly Cloudy
11:55 PM 76.3 °F - 69.1 °F 78% 30.28 in 10.0 mi East 16.1 mph 21.9 mph N/A   Scattered Clouds